[[{"header":{"parameterUnit":"m.s-1","parameterCategory":1,"la1":30.2991,"la2":30.254,"lo1":-89.0895,"lo2":-89.0444,"dy":0.0017,"dx":0.0017,"nx":28,"ny":28,"refTime":"2025-09-06T03:00:00:Z","depth":0,"parameterNumber":2,"parameterNumberName":"U-component_of_WINDS"},"data":[0,0,0,0,0,0,0,0,0,0,0,0,0,0,0,0,0,0,0,0,0,0,0,0,0,0,0,0,0,0,0,0,0,0,0,0,0,0,0,0,0,0,0,0,0,0,0,0,0,0,0,0,0,0,0,0,0,0,0.5598,0.5599,0,0.5691,0.5692,0.5693,0.5727,0.5727,0.5727,0.5726,0.5822,0.5825,0.5827,0,0,0,0,0,0,0,0,0,0,0,0,0,0.5451,0.5453,0.5598,0.5599,0.56,0.5691,0.5692,0.5693,0.5727,0.5727,0.5727,0.5726,0.5821,0.5824,0.5828,0,0,0,0,0,0,0,0,0,0,0,0,0,0.5526,0.5454,0.5598,0.5628,0.5632,0.569,0.5692,0.5693,0.5727,0.5727,0.5726,0.5726,0.582,0.5824,0.5828,0.5863,0,0,0.5841,0.5843,0,0,0,0,0,0,0,0,0.5522,0.5531,0.5623,0.5626,0.5631,0.5697,0.5675,0.575,0.5727,0.5691,0.5726,0.5726,0.5781,0.5788,0.5807,0.5868,0.5872,0.5841,0.5844,0.5846,0.5847,0,0,0,0,0,0,0,0.5516,0.5528,0.5635,0.5624,0.5629,0.5637,0.5647,0.5689,0.5737,0.5694,0.5697,0.5707,0.5783,0.5802,0.5809,0.5873,0.5841,0.5845,0.5848,0.5849,0.5966,0.5967,0,0,0,0,0,0,0.5506,0.5523,0.5632,0.5638,0.5574,0.564,0.5652,0.5676,0.5737,0.5746,0.5708,0.5709,0.5795,0.5804,0.5812,0.5857,0.5846,0.585,0.5852,0.5966,0.5966,0.5967,0,0,0,0,0,0,0.5503,0.5516,0.5628,0.5581,0.5596,0.5643,0.567,0.5678,0.5698,0.5747,0.5756,0.5719,0.5795,0.5807,0.585,0.586,0.5852,0.5856,0.5965,0.5966,0.5967,0.5946,0,0,0,0,0,0,0.5498,0.5514,0.5528,0.5581,0.5598,0.5664,0.5671,0.568,0.5705,0.5707,0.576,0.5768,0.5796,0.5843,0.5854,0.5866,0.5859,0.5964,0.5965,0.5966,0.5945,0.5946,0.5946,0,0,0,0,0,0.5493,0.5519,0.5529,0.5542,0.5617,0.5665,0.5675,0.5705,0.5706,0.572,0.5751,0.5767,0.5857,0.5848,0.586,0.5873,0.5964,0.5965,0.5966,0.5945,0.5946,0.5946,0,0,0,0,0,0,0.5467,0.5527,0.5538,0.5582,0.5618,0.567,0.5689,0.5705,0.5742,0.5742,0.5779,0.5791,0.5831,0.5857,0.5845,0.591,0.5912,0.5915,0.5891,0.5892,0.5892,0.5885,0.5862,0,0,0,0,0,0.5466,0.55,0.555,0.5584,0.5601,0.5642,0.5664,0.5685,0.5723,0.5739,0.5774,0.5811,0.5848,0.5871,0.5908,0.5949,0.5961,0.5964,0.5964,0.5964,0.5967,0.599,0.5992,0.5971,0.5971,0.5971,0,0,0.5465,0.5502,0.5521,0.5579,0.561,0.5643,0.5655,0.569,0.5716,0.5745,0.5787,0.5814,0.5858,0.59,0.592,0.5922,0.5975,0.5966,0.5965,0.5968,0.5991,0.5993,0.5995,0.5972,0.5972,0.5972,0,0,0.548,0.5511,0.5542,0.5572,0.5617,0.5644,0.5651,0.5702,0.572,0.5763,0.5785,0.5816,0.5879,0.5909,0.5932,0.5957,0.5972,0.5968,0.5968,0.599,0.5991,0.5993,0.6001,0.6003,0.597,0.597,0.597,0,0.5472,0.5524,0.5556,0.559,0.5615,0.5642,0.5673,0.5701,0.5756,0.5772,0.5774,0.5852,0.5884,0.5933,0.5938,0.5957,0.5966,0.5962,0.5988,0.599,0.5992,0.6,0.6003,0.597,0.597,0.597,0.597,0,0.5513,0.5548,0.5568,0.562,0.5647,0.5679,0.5716,0.5739,0.5757,0.5783,0.5826,0.5865,0.5909,0.5922,0.5941,0.5973,0.5973,0.5981,0.5984,0.5993,0.6001,0.6004,0.5968,0.5969,0.5969,0.5969,0,0,0.5515,0.5583,0.5589,0.5612,0.5664,0.5692,0.5725,0.5768,0.5787,0.5824,0.5852,0.5904,0.5911,0.5937,0.5959,0.5978,0.5994,0.5984,0.5985,0.5984,0.6031,0.6025,0.6028,0.6004,0.6005,0.6005,0.6027,0,0.5536,0.5596,0.5625,0.5673,0.5706,0.5731,0.576,0.5794,0.5819,0.5851,0.5879,0.5914,0.5921,0.5937,0.5957,0.5988,0.6004,0.5986,0.6031,0.6032,0.6018,0.6032,0.6026,0.6045,0.6031,0.6032,0.6032,0,0.5569,0.5605,0.5655,0.5702,0.5717,0.5742,0.5783,0.5813,0.5852,0.5869,0.5897,0.5918,0.5953,0.5953,0.6002,0.5989,0.6009,0.6027,0.6028,0.6033,0.6032,0.6038,0.6052,0.6055,0.6037,0.6037,0.6037,0,0.5564,0.5625,0.5663,0.5682,0.5738,0.5755,0.5778,0.5817,0.5841,0.5876,0.5892,0.5931,0.5953,0.5983,0.6013,0.601,0.6059,0.6061,0.6074,0.6073,0.6083,0.6082,0.61,0.6096,0.6096,0.6096,0.6096,0,0.5585,0.5614,0.5661,0.5685,0.5719,0.5751,0.5784,0.581,0.5844,0.5872,0.5896,0.5923,0.5961,0.5992,0.6016,0.6053,0.6062,0.6077,0.6083,0.6075,0.6073,0.6088,0.6087,0.6096,0.6096,0.6096,0.6096,0,0.5585,0.5618,0.5661,0.5709,0.5722,0.5744,0.5786,0.5809,0.5835,0.5871,0.5881,0.5921,0.5959,0.5992,0.6042,0.6058,0.6095,0.6103,0.6082,0.6085,0.6095,0.6093,0.6124,0.613,0.6121,0.6121,0.6121,0,0.5596,0.5619,0.567,0.569,0.5714,0.5747,0.577,0.5803,0.5827,0.5872,0.589,0.5929,0.5962,0.6021,0.6055,0.6093,0.6101,0.6109,0.6107,0.6098,0.6101,0.6099,0.6101,0.6109,0.6109,0.6109,0.6109,0,0.5611,0.5626,0.5659,0.5698,0.5725,0.5758,0.5791,0.5806,0.5845,0.587,0.5908,0.5934,0.5984,0.6022,0.6064,0.6088,0.6105,0.6109,0.6114,0.6106,0.6092,0.6099,0.6081,0.6108,0.6109,0.6109,0.6109,0.6109,0.5617,0.5638,0.5677,0.5713,0.5741,0.5771,0.5795,0.5823,0.5856,0.5899,0.5916,0.5955,0.5993,0.605,0.6074,0.6105,0.6108,0.6115,0.6117,0.6118,0.6116,0.6087,0.6112,0.6112,0.6112,0.6113,0.6113,0,0.5633,0.5659,0.5691,0.5736,0.5764,0.5777,0.5814,0.5836,0.587,0.5904,0.5935,0.5979,0.6016,0.6052,0.6091,0.6108,0.6117,0.6117,0.6116,0.6122,0.6111,0.6103,0.611,0.611,0.611,0.611,0.611,0.611,0.5644,0.5681,0.57,0.5751,0.5777,0.5815,0.5835,0.5862,0.5889,0.5936,0.5967,0.599,0.6025,0.6066,0.61,0.611,0.6123,0.6121,0.6133,0.6123,0.6122,0.6122,0.6115,0.6124,0.6124,0.6141,0.6141,0.6141]},{"header":{"parameterUnit":"m.s-1","parameterCategory":1,"la1":30.2991,"la2":30.254,"lo1":-89.0895,"lo2":-89.0444,"dy":0.0017,"dx":0.0017,"nx":28,"ny":28,"refTime":"2025-09-06T03:00:00:Z","depth":0,"parameterNumber":3,"parameterNumberName":"V-component_of_WINDS"},"data":[0,0,0,0,0,0,0,0,0,0,0,0,0,0,0,0,0,0,0,0,0,0,0,0,0,0,0,0,0,0,0,0,0,0,0,0,0,0,0,0,0,0,0,0,0,0,0,0,0,0,0,0,0,0,0,0,0,0,2.2533,2.2532,0,2.2436,2.2435,2.2434,2.2407,2.2408,2.2408,2.2409,2.23,2.2297,2.2294,0,0,0,0,0,0,0,0,0,0,0,0,0,2.2687,2.2685,2.2533,2.2532,2.2531,2.2436,2.2435,2.2434,2.2407,2.2408,2.2408,2.2409,2.2302,2.2298,2.2293,0,0,0,0,0,0,0,0,0,0,0,0,0,2.2608,2.2684,2.2534,2.2506,2.2503,2.2437,2.2435,2.2433,2.2407,2.2408,2.2408,2.2409,2.2303,2.2298,2.2293,2.2244,0,0,2.2277,2.2275,0,0,0,0,0,0,0,0,2.2613,2.2602,2.2512,2.2508,2.2504,2.2435,2.2449,2.2369,2.2406,2.2443,2.2409,2.241,2.2344,2.2335,2.2315,2.2239,2.2234,2.2277,2.2274,2.2271,2.227,0,0,0,0,0,0,0,2.2618,2.2606,2.2495,2.251,2.2506,2.2496,2.2486,2.2434,2.2389,2.244,2.2438,2.2427,2.2342,2.232,2.2312,2.2232,2.2277,2.2272,2.2269,2.2267,2.2109,2.2108,0,0,0,0,0,0,2.263,2.2611,2.2498,2.2492,2.2562,2.2493,2.2481,2.2456,2.239,2.2381,2.2426,2.2426,2.2328,2.2318,2.2308,2.2245,2.2271,2.2267,2.2264,2.211,2.2109,2.2107,0,0,0,0,0,0,2.2633,2.262,2.2502,2.2551,2.2535,2.2489,2.2461,2.2454,2.2432,2.238,2.2371,2.2413,2.2329,2.2315,2.226,2.2241,2.2264,2.226,2.2111,2.211,2.2108,2.2119,0,0,0,0,0,0,2.2638,2.2621,2.2604,2.2551,2.2533,2.2458,2.246,2.2451,2.2424,2.2423,2.2365,2.2356,2.2328,2.2268,2.2255,2.2234,2.2256,2.2113,2.2111,2.2109,2.2121,2.2118,2.2117,0,0,0,0,0,2.2643,2.2609,2.2603,2.259,2.2511,2.2457,2.2446,2.2418,2.2423,2.2404,2.237,2.2358,2.2246,2.2263,2.2248,2.2225,2.2114,2.2111,2.2109,2.2121,2.2119,2.2117,0,0,0,0,0,0,2.2659,2.2602,2.2594,2.2543,2.2506,2.2453,2.2428,2.2416,2.2373,2.2374,2.2337,2.2324,2.2271,2.2243,2.2263,2.2173,2.2179,2.2174,2.2194,2.2191,2.2189,2.2196,2.2251,0,0,0,0,0,2.2657,2.262,2.2572,2.2531,2.2513,2.2474,2.2449,2.2431,2.2389,2.2371,2.2334,2.2291,2.2246,2.2217,2.2173,2.2117,2.2102,2.2094,2.2092,2.2091,2.2085,2.2052,2.2047,2.2099,2.2099,2.2099,0,0,2.2651,2.2616,2.2594,2.2533,2.2502,2.2462,2.246,2.2418,2.2388,2.2364,2.231,2.2281,2.2231,2.2175,2.2148,2.2149,2.2068,2.2087,2.2087,2.2082,2.2048,2.2044,2.2039,2.2097,2.2098,2.2098,0,0,2.262,2.2591,2.2554,2.2523,2.2476,2.245,2.2441,2.239,2.2371,2.2317,2.2298,2.2259,2.2183,2.2148,2.212,2.2076,2.2062,2.2063,2.2051,2.2019,2.2015,2.2011,2.1993,2.1988,2.2058,2.2058,2.2058,0,2.2618,2.2561,2.2535,2.2494,2.2467,2.2447,2.2407,2.2377,2.2317,2.2297,2.2301,2.2204,2.2169,2.2104,2.2093,2.2072,2.2058,2.2068,2.2018,2.2014,2.201,2.1992,2.1986,2.2058,2.2058,2.2058,2.2058,0,2.256,2.252,2.2495,2.244,2.241,2.237,2.2335,2.2307,2.2292,2.2265,2.2208,2.2166,2.2112,2.2096,2.2079,2.2027,2.2029,2.2026,2.203,2.2005,2.1988,2.1982,2.2059,2.2059,2.2059,2.2059,0,0,2.2535,2.2468,2.2459,2.2433,2.238,2.2347,2.2305,2.2256,2.2232,2.2191,2.2153,2.2089,2.2086,2.2054,2.2033,2.2005,2.1971,2.2004,2.2002,2.1998,2.1908,2.191,2.1903,2.1962,2.1961,2.196,2.1912,0,2.2496,2.2424,2.2399,2.2337,2.2299,2.2279,2.2242,2.2204,2.2178,2.2139,2.2109,2.2064,2.2064,2.2044,2.2016,2.1981,2.1952,2.1984,2.1923,2.1921,2.1935,2.1895,2.1896,2.1853,2.1905,2.1904,2.1904,0,2.2441,2.2402,2.2338,2.229,2.2272,2.224,2.2192,2.2156,2.2112,2.2094,2.206,2.2041,2.1993,2.2002,2.1934,2.1957,2.193,2.1909,2.1907,2.1898,2.191,2.1883,2.1839,2.1832,2.1893,2.1894,2.1895,0,2.2427,2.2359,2.2311,2.229,2.2233,2.221,2.2185,2.2142,2.2113,2.207,2.2051,2.2002,2.1975,2.1936,2.1903,2.1914,2.1837,2.1845,2.1819,2.182,2.1802,2.1803,2.1752,2.1789,2.1789,2.1789,2.1789,0,2.2386,2.2346,2.2304,2.2275,2.2229,2.22,2.2155,2.2128,2.209,2.2052,2.2032,2.1996,2.1957,2.1915,2.1889,2.1835,2.1824,2.1806,2.1799,2.1807,2.1809,2.1787,2.1788,2.1787,2.1787,2.1788,2.1788,0,2.2362,2.2333,2.2279,2.223,2.2216,2.2185,2.2141,2.211,2.2084,2.2036,2.2023,2.198,2.1931,2.1895,2.183,2.1812,2.1754,2.1748,2.177,2.1766,2.1742,2.1744,2.1673,2.1661,2.1708,2.1708,2.1708,0,2.2336,2.2306,2.2254,2.2229,2.2205,2.2164,2.2136,2.2106,2.2076,2.2023,2.1998,2.1947,2.1905,2.1826,2.1787,2.1737,2.1728,2.1707,2.172,2.1728,2.1725,2.1727,2.1722,2.1704,2.1704,2.1703,2.1703,0,2.2293,2.2281,2.2242,2.2198,2.2165,2.2128,2.209,2.207,2.2033,2.2,2.1951,2.1918,2.1853,2.1802,2.1748,2.1719,2.1703,2.17,2.1691,2.1697,2.171,2.1701,2.1763,2.1701,2.1701,2.1701,2.1701,2.1702,2.2266,2.2238,2.2198,2.2155,2.2124,2.2089,2.2058,2.2028,2.1987,2.1934,2.1918,2.1866,2.182,2.1747,2.1717,2.1673,2.1674,2.1661,2.1658,2.1655,2.1654,2.1719,2.1663,2.1663,2.1663,2.1663,2.1663,0,2.2221,2.2194,2.2155,2.2105,2.207,2.2063,2.2021,2.1992,2.1947,2.1908,2.1867,2.1809,2.176,2.1718,2.1666,2.1639,2.163,2.1626,2.1626,2.1619,2.1657,2.167,2.1633,2.1634,2.1634,2.1634,2.1634,2.1634,2.2193,2.2145,2.2127,2.2062,2.2035,2.1986,2.1962,2.1929,2.1897,2.1835,2.1794,2.1769,2.1727,2.1672,2.1625,2.1613,2.1594,2.1591,2.1577,2.1613,2.1617,2.162,2.1631,2.1587,2.1587,2.1542,2.1542,2.1542]}]]